, FL

(GMT )
Bonifay

Weather History for K1J0 - August, 2019

Change the Weather History Date:

Monday, August 19, 2019

  Actual Average Record
Temperature  
Mean Temperature 80 °F -  
Max Temperature 88 °F - - ()
Min Temperature 73 °F - - ()
Cooling Degree Days 16    
Growing Degree Days 30 (Base 50)    
Moisture  
Dew Point 73 °F    
Average Humidity 86    
Maximum Humidity 94    
Minimum Humidity 63    
Precipitation  
Precipitation 0.00 in - - ()
Sea Level Pressure  
Sea Level Pressure 29.95 in    
Wind  
Wind Speed 3 mph (SSW)    
Max Wind Speed 7 mph    
Max Gust Speed -    
Visibility 9 miles    
Events Rain , Thunderstorm    
Averages and records for this station are not official NWS values.
T = Trace of Precipitation, MM = Missing Value Source: NWS Daily Summary

Daily Weather History Graph

Daily Weather History Graph

Search for Another Location

Airport or City:

Astronomy

Aug. 19, 2019 Rise Set
Actual Time 7:10 AM EDT 8:20 PM EDT
Civil Twilight 6:45 AM EDT 8:45 PM EDT
Nautical Twilight 6:15 AM EDT 9:15 PM EDT
Astronomical Twilight 5:44 AM EDT 9:46 PM EDT
Moon 10:56 PM EDT 10:38 AM EDT
Length of Visible Light 14h 00m
Length of Day
13h 09m
Waning Gibbous, 85% of the Moon is Illuminated
Aug 19
Waning Gibbous
Aug 23
Last Quarter
Aug 30
New
Sep 5
First Quarter
Sep 14
Full

Hourly Weather History & Observations

Time (EDT) Temp. Heat Index Dew Point Humidity Pressure Visibility Wind Dir Wind Speed Gust Speed Precip Events Conditions
12:58 AM 73.9 °F - 72.0 °F 93% 29.90 in 10.0 mi SW 4.6 mph - N/A   Scattered Clouds
1:58 AM 75.0 °F - 72.0 °F 90% 29.88 in 10.0 mi West 3.5 mph - N/A   Clear
2:58 AM 75.9 °F - 73.0 °F 91% 29.87 in 10.0 mi Variable 3.5 mph - N/A   Clear
3:58 AM 75.9 °F - 73.0 °F 91% 29.88 in 10.0 mi Calm Calm - N/A   Clear
4:58 AM 75.0 °F - 73.0 °F 94% 29.88 in 10.0 mi Calm Calm - N/A   Clear
5:58 AM 75.0 °F - 73.0 °F 94% 29.90 in 10.0 mi Calm Calm - N/A   Mostly Cloudy
6:58 AM 75.0 °F - 73.0 °F 94% 29.91 in 9.0 mi Calm Calm - N/A   Scattered Clouds
7:58 AM 75.0 °F - 73.0 °F 94% 29.92 in 8.0 mi Calm Calm - N/A   Partly Cloudy
8:58 AM 77.0 °F - 73.9 °F 90% 29.94 in 10.0 mi Calm Calm - N/A   Scattered Clouds
9:58 AM 82.0 °F 88.6 °F 75.0 °F 79% 29.95 in 10.0 mi North 3.5 mph - N/A   Mostly Cloudy
11:02 AM 82.0 °F 89.4 °F 75.9 °F 82% 30.08 in 10.0 mi SE 3.5 mph - N/A   Mostly Cloudy
11:50 AM 84.9 °F 93.3 °F 75.0 °F 72% 30.08 in 10.0 mi Variable 4.6 mph - N/A   Scattered Clouds
11:58 AM 84.9 °F 93.3 °F 75.0 °F 72% 29.96 in 10.0 mi Variable 3.5 mph - N/A   Partly Cloudy
12:58 PM 88.0 °F 96.5 °F 73.9 °F 63% 29.95 in 10.0 mi SSE 5.8 mph - N/A   Scattered Clouds
1:58 PM 88.0 °F 96.5 °F 73.9 °F 63% 29.92 in 10.0 mi SE 6.9 mph - N/A   Overcast
2:58 PM 79.0 °F - 72.0 °F 79% 29.91 in 10.0 mi Variable 4.6 mph - N/A Thunderstorm Thunderstorm
3:33 PM 75.9 °F - 71.1 °F 85% 30.03 in 1.0 mi West 3.5 mph - N/A Thunderstorm Unknown
3:39 PM 75.9 °F - 71.1 °F 85% 30.04 in 5.0 mi Calm Calm - N/A Thunderstorm Unknown
4:06 PM 75.0 °F - 72.0 °F 90% 30.02 in 9.0 mi SW 4.6 mph - 0.00 in Rain Light Rain
5:35 PM 80.1 °F 84.2 °F 73.0 °F 79% 30.03 in 10.0 mi Calm Calm - N/A   Mostly Cloudy
5:58 PM 80.1 °F 84.5 °F 73.9 °F 81% 29.91 in 10.0 mi South 3.5 mph - N/A   Scattered Clouds
6:58 PM 78.1 °F - 73.9 °F 87% 29.89 in 10.0 mi SW 3.5 mph - N/A   Clear
7:58 PM 77.0 °F - 73.9 °F 90% 29.91 in 10.0 mi Calm Calm - N/A   Clear
8:58 PM 77.0 °F - 73.9 °F 90% 29.93 in 10.0 mi SW 3.5 mph - N/A   Partly Cloudy
9:58 PM 75.9 °F - 73.9 °F 94% 29.94 in 10.0 mi Calm Calm - N/A   Clear
10:58 PM 75.9 °F - 73.9 °F 94% 29.96 in 10.0 mi SE 3.5 mph - N/A   Overcast
11:58 PM 75.9 °F - 73.9 °F 94% 29.95 in 10.0 mi South 4.6 mph - N/A   Clear